Weather History for K1M4 - September, 2013

Change the Weather History Date:

Wednesday, September 18, 2013

  Actual Average (KJFX) Record (KJFX)
Temperature  
Mean Temperature 73 °F -  
Max Temperature 81 °F 83 °F 95 °F (1978)
Min Temperature 65 °F 60 °F 41 °F (1981)
Cooling Degree Days 8    
Growing Degree Days 23 (Base 50)    
Moisture  
Dew Point 66 °F    
Average Humidity 77    
Maximum Humidity 90    
Minimum Humidity 61    
Precipitation  
Precipitation 0.00 in - - ()
Sea Level Pressure  
Sea Level Pressure 30.20 in    
Wind  
Wind Speed 6 mph (SE)    
Max Wind Speed 14 mph    
Max Gust Speed 17 mph    
Visibility 10 miles    
Events      
Averages and records for this station are not official NWS values.
T = Trace of Precipitation, MM = Missing Value Source: NWS Daily Summary

Daily Weather History Graph

Daily Weather History Graph

Search for Another Location

Airport or City:

Trip Planner

Search our weather history database for the weather conditions in past years. The results will help you decide how hot, cold, wet, or windy it might be!

Date:

Astronomy

Sep. 18, 2013 Rise Set
Actual Time 6:35 AM CDT 6:52 PM CDT
Civil Twilight 6:10 AM CDT 7:17 PM CDT
Nautical Twilight 5:41 AM CDT 7:46 PM CDT
Astronomical Twilight 5:11 AM CDT 8:16 PM CDT
Moon 6:16 PM CDT (9/18) 5:38 AM CDT (9/18)
Length of Visible Light 13h 06m
Length of Day
12h 16m
Waxing Gibbous, 99% of the Moon is Illuminated
Sep 18
Waxing Gibbous
Sep 19
Full
Sep 26
Last Quarter
Oct 4
New
Oct 11
First Quarter

Hourly Weather History & Observations

Time (CDT) Temp. Heat Index Dew Point Humidity Pressure Visibility Wind Dir Wind Speed Gust Speed Precip Events Conditions
12:56 AM 70.0 °F - 66.9 °F 90% 30.20 in 8.0 mi SE 6.9 mph - N/A   Clear
1:56 AM 68.9 °F - 65.8 °F 90% 30.19 in 8.0 mi SE 8.1 mph - N/A   Clear
2:56 AM 68.0 °F - 64.9 °F 90% 30.19 in 8.0 mi ESE 6.9 mph - N/A   Clear
3:56 AM 66.9 °F - 63.9 °F 90% 30.19 in 10.0 mi SE 5.8 mph - N/A   Clear
4:56 AM 66.9 °F - 63.9 °F 90% 30.21 in 10.0 mi SE 4.6 mph - N/A   Clear
5:56 AM 65.8 °F - 63.0 °F 90% 30.22 in 10.0 mi SE 6.9 mph - N/A   Partly Cloudy
6:56 AM 65.8 °F - 63.0 °F 90% 30.22 in 10.0 mi SE 8.1 mph - N/A   Scattered Clouds
7:20 AM 66.2 °F - 62.6 °F 88% 30.19 in 10.0 mi SE 9.2 mph - N/A   Mostly Cloudy
7:56 AM 66.9 °F - 63.0 °F 87% 30.23 in 10.0 mi SE 6.9 mph - N/A   Mostly Cloudy
8:19 AM 69.8 °F - 62.6 °F 78% 30.20 in 10.0 mi SE 5.8 mph - N/A   Scattered Clouds
8:56 AM 70.9 °F - 63.0 °F 76% 30.25 in 10.0 mi SE 8.1 mph - N/A   Mostly Cloudy
9:26 AM 71.6 °F - 64.4 °F 78% 30.22 in 10.0 mi SE 8.1 mph - N/A   Scattered Clouds
9:56 AM 73.9 °F - 63.9 °F 71% 30.25 in 10.0 mi SSE 10.4 mph 17.3 mph N/A   Clear
10:56 AM 77.0 °F - 64.9 °F 66% 30.24 in 10.0 mi SE 9.2 mph - N/A   Clear
11:48 AM 78.8 °F - 66.2 °F 65% 30.20 in 10.0 mi South 13.8 mph - N/A   Mostly Cloudy
11:56 AM 79.9 °F - 65.8 °F 62% 30.23 in 10.0 mi South 10.4 mph - N/A   Scattered Clouds
12:12 PM 78.8 °F - 66.2 °F 65% 30.20 in 10.0 mi SSE 8.1 mph - N/A   Mostly Cloudy
12:56 PM 79.9 °F - 66.9 °F 64% 30.22 in 10.0 mi SSE 8.1 mph - N/A   Mostly Cloudy
1:56 PM 79.0 °F - 66.9 °F 66% 30.20 in 10.0 mi Calm Calm - N/A   Mostly Cloudy
2:41 PM 80.6 °F 82.7 °F 66.2 °F 61% 30.15 in 10.0 mi Calm Calm - N/A   Overcast
2:56 PM 79.9 °F - 66.9 °F 64% 30.18 in 10.0 mi Variable 5.8 mph - N/A   Mostly Cloudy
3:56 PM 81.0 °F 83.8 °F 68.0 °F 65% 30.17 in 10.0 mi Calm Calm - N/A   Scattered Clouds
4:56 PM 81.9 °F 84.8 °F 68.0 °F 63% 30.16 in 10.0 mi Variable 3.5 mph - N/A   Clear
5:56 PM 79.9 °F - 68.0 °F 67% 30.15 in 10.0 mi Variable 4.6 mph - N/A   Clear
6:56 PM 74.8 °F - 68.0 °F 79% 30.16 in 10.0 mi Calm Calm - N/A   Clear
7:56 PM 72.9 °F - 68.0 °F 85% 30.16 in 10.0 mi Calm Calm - N/A   Clear
8:56 PM 72.0 °F - 66.9 °F 84% 30.18 in 10.0 mi Calm Calm - N/A   Clear
9:56 PM 70.9 °F - 66.9 °F 87% 30.18 in 10.0 mi ESE 3.5 mph - N/A   Clear
10:56 PM 70.9 °F - 65.8 °F 84% 30.18 in 10.0 mi SE 6.9 mph - N/A   Clear
11:56 PM 70.9 °F - 65.8 °F 84% 30.17 in 10.0 mi SE 5.8 mph - N/A   Clear